Weather History for Gunnison, CO

Change the Weather History Date:

Wednesday, November 21, 2012

  Actual Average Record
Temperature  
Mean Temperature 30 °F -  
Max Temperature 51 °F 36 °F 53 °F (2008)
Min Temperature 10 °F 11 °F -2 °F (2000)
Degree Days  
Heating Degree Days 34    
Moisture  
Dew Point 11 °F    
Average Humidity 56    
Maximum Humidity 100    
Minimum Humidity 24    
Precipitation  
Precipitation 0.00 in - - ()
Sea Level Pressure  
Sea Level Pressure 30.28 in    
Wind  
Wind Speed 0 mph (East)    
Max Wind Speed 6 mph    
Max Gust Speed -    
Visibility 10 miles    
Events      
Averages and records for this station are not official NWS values.
T = Trace of Precipitation, MM = Missing Value Source: NWS Daily Summary

Daily Weather History Graph

Daily Weather History Graph

Search for Another Location

Airport:

Trip Planner

Search our weather history database for the weather conditions in past years. The results will help you decide how hot, cold, wet, or windy it might be!

Date:

Astronomy

Nov. 21, 2012 Rise Set
Actual Time 6:56 AM MST 4:50 PM MST
Civil Twilight 6:27 AM MST 5:19 PM MST
Nautical Twilight 5:55 AM MST 5:51 PM MST
Astronomical Twilight 5:23 AM MST 6:23 PM MST
Moon 1:04 PM MST (11/21) 12:23 AM MST (11/21)
Length of Visible Light 10h 51m
Length of Day
9h 53m
Waxing Gibbous, 62% of the Moon is Illuminated
Nov 21
Waxing Gibbous
Nov 28
Full
Dec 6
Last Quarter
Dec 13
New
Dec 19
First Quarter

Hourly Weather History & Observations

Time (MST) Temp. Windchill Dew Point Humidity Pressure Visibility Wind Dir Wind Speed Gust Speed Precip Events Conditions
12:15 AM 19.4 °F - 8.6 °F 63% 30.38 in 10.0 mi Calm Calm - N/A   Clear
12:35 AM 19.4 °F - 10.4 °F 68% 30.38 in 10.0 mi Calm Calm - N/A   Clear
12:55 AM 17.6 °F - 8.6 °F 68% 30.37 in 10.0 mi Calm Calm - N/A   Clear
1:15 AM 19.4 °F - 12.2 °F 74% 30.37 in 10.0 mi Calm Calm - N/A   Clear
1:35 AM 17.6 °F 12.3 °F 8.6 °F 68% 30.37 in 10.0 mi ENE 3.5 mph - N/A   Clear
1:55 AM 17.6 °F - 12.2 °F 79% 30.37 in 10.0 mi Calm Calm - N/A   Clear
2:15 AM 15.8 °F - 6.8 °F 68% 30.38 in 10.0 mi Calm Calm - N/A   Clear
2:35 AM 15.8 °F 10.2 °F 8.6 °F 73% 30.37 in 10.0 mi NE 3.5 mph - N/A   Clear
2:55 AM 15.8 °F - 10.4 °F 79% 30.38 in 10.0 mi Calm Calm - N/A   Clear
3:15 AM 17.6 °F - 10.4 °F 73% 30.37 in 10.0 mi Calm Calm - N/A   Clear
3:35 AM 17.6 °F - 10.4 °F 73% 30.38 in 10.0 mi Calm Calm - N/A   Clear
3:55 AM 15.8 °F - 10.4 °F 79% 30.37 in 10.0 mi North - - N/A   Clear
4:15 AM 14.0 °F - 6.8 °F 73% 30.37 in 10.0 mi Calm Calm - N/A   Clear
4:35 AM 12.2 °F - 8.6 °F 85% 30.37 in 10.0 mi Calm Calm - N/A   Clear
4:55 AM 14.0 °F - 8.6 °F 79% 30.37 in 10.0 mi Calm Calm - N/A   Clear
5:15 AM 12.2 °F - 3.2 °F 67% 30.37 in 10.0 mi Calm Calm - N/A   Clear
5:35 AM 12.2 °F - 10.4 °F 92% 30.36 in 10.0 mi Calm Calm - N/A   Clear
5:55 AM 12.2 °F - 8.6 °F 85% 30.36 in 10.0 mi Calm Calm - N/A   Clear
6:15 AM 12.2 °F - 8.6 °F 85% 30.36 in 10.0 mi Calm Calm - N/A   Clear
6:55 AM 10.4 °F - 10.4 °F 100% 30.37 in 10.0 mi Calm Calm - N/A   Clear
7:15 AM 10.4 °F - 3.2 °F 73% 30.38 in 10.0 mi Calm Calm - N/A   Clear
7:35 AM 12.2 °F - 10.4 °F 92% 30.38 in 10.0 mi Calm Calm - N/A   Clear
7:55 AM 14.0 °F - 8.6 °F 79% 30.38 in 10.0 mi Calm Calm - N/A   Clear
8:15 AM 15.8 °F - 8.6 °F 73% 30.38 in 10.0 mi Calm Calm - N/A   Clear
8:55 AM 19.4 °F - 10.4 °F 68% 30.38 in 10.0 mi Calm Calm - N/A   Clear
9:15 AM 21.2 °F - 10.4 °F 63% 30.37 in 10.0 mi Calm Calm - N/A   Clear
9:35 AM 24.8 °F - 14.0 °F 64% 30.37 in 10.0 mi Calm Calm - N/A   Clear
9:55 AM 26.6 °F - 14.0 °F 59% 30.36 in 10.0 mi Calm Calm - N/A   Clear
10:15 AM 28.4 °F - 12.2 °F 51% 30.36 in 10.0 mi Calm Calm - N/A   Clear
11:15 AM 35.6 °F - 14.0 °F 41% 30.31 in 10.0 mi Calm Calm - N/A   Clear
11:35 AM 37.4 °F 34.9 °F 17.6 °F 45% 30.29 in 10.0 mi South 3.5 mph - N/A   Clear
11:55 AM 37.4 °F - 15.8 °F 41% 30.28 in 10.0 mi Calm Calm - N/A   Clear
12:15 PM 41.0 °F - 15.8 °F 36% 30.26 in 10.0 mi Calm Calm - N/A   Clear
12:35 PM 42.8 °F - 17.6 °F 36% 30.25 in 10.0 mi Calm Calm - N/A   Clear
12:55 PM 44.6 °F - 15.8 °F 31% 30.23 in 10.0 mi Calm Calm - N/A   Clear
1:15 PM 44.6 °F - 14.0 °F 29% 30.22 in 10.0 mi Calm Calm - N/A   Clear
1:35 PM 46.4 °F 44.3 °F 15.8 °F 29% 30.21 in 10.0 mi South 4.6 mph - N/A   Clear
1:55 PM 46.4 °F 45.2 °F 15.8 °F 29% 30.20 in 10.0 mi North 3.5 mph - N/A   Clear
2:15 PM 48.2 °F - 15.8 °F 27% 30.19 in 10.0 mi SW 3.5 mph - N/A   Clear
2:35 PM 48.2 °F - 15.8 °F 27% 30.18 in 10.0 mi Calm Calm - N/A   Clear
2:55 PM 51.8 °F - 15.8 °F 24% 30.18 in 10.0 mi Calm Calm - N/A   Clear
3:15 PM 51.8 °F - 15.8 °F 24% 30.18 in 10.0 mi Calm Calm - N/A   Clear
3:35 PM 50.0 °F - 14.0 °F 24% 30.18 in 10.0 mi Calm Calm - N/A   Clear
3:55 PM 50.0 °F - 14.0 °F 24% 30.17 in 10.0 mi Calm Calm - N/A   Clear
4:55 PM 44.6 °F - 12.2 °F 27% 30.17 in 10.0 mi Calm Calm - N/A   Clear
5:15 PM 42.8 °F - 14.0 °F 31% 30.17 in 10.0 mi Calm Calm - N/A   Clear
5:35 PM 37.4 °F - 10.4 °F 33% 30.18 in 10.0 mi Calm Calm - N/A   Clear
5:55 PM 35.6 °F - 10.4 °F 35% 30.18 in 10.0 mi Calm Calm - N/A   Clear
6:15 PM 35.6 °F - 12.2 °F 38% 30.19 in 10.0 mi Calm Calm - N/A   Clear
6:35 PM 32.0 °F - 12.2 °F 44% 30.20 in 10.0 mi Calm Calm - N/A   Clear
6:55 PM 32.0 °F - 12.2 °F 44% 30.20 in 10.0 mi Calm Calm - N/A   Clear
7:15 PM 30.2 °F - 15.8 °F 55% 30.20 in 10.0 mi Calm Calm - N/A   Clear
7:35 PM 28.4 °F 23.3 °F 6.8 °F 40% 30.20 in 10.0 mi East 4.6 mph - N/A   Clear
7:55 PM 26.6 °F 20.0 °F 10.4 °F 51% 30.20 in 10.0 mi NE 5.8 mph - N/A   Clear
8:15 PM 28.4 °F - 12.2 °F 51% 30.21 in 10.0 mi Calm Calm - N/A   Clear
8:35 PM 24.8 °F - 10.4 °F 54% 30.22 in 10.0 mi Calm Calm - N/A   Clear
9:15 PM 24.8 °F - 10.4 °F 54% 30.21 in 10.0 mi Calm Calm - N/A   Clear
9:35 PM 23.0 °F - 8.6 °F 54% 30.22 in 10.0 mi Calm Calm - N/A   Clear
9:55 PM 24.8 °F - 10.4 °F 54% 30.22 in 10.0 mi Calm Calm - N/A   Clear
10:15 PM 23.0 °F - 8.6 °F 54% 30.22 in 10.0 mi Calm Calm - N/A   Clear
10:35 PM 21.2 °F - 10.4 °F 63% 30.23 in 10.0 mi Calm Calm - N/A   Clear
10:55 PM 19.4 °F - 8.6 °F 63% 30.22 in 10.0 mi Calm Calm - N/A   Clear
11:15 PM 19.4 °F - 6.8 °F 58% 30.23 in 10.0 mi Calm Calm - N/A   Clear
11:55 PM 21.2 °F - 8.6 °F 58% 30.23 in 10.0 mi Calm Calm - N/A   Clear